Weather in Pretoriya

Russia / Orenburg Oblast     52°14′46″N   54°19′32″E
temp.,
°C
wind,
m/s
gust,
m/s
humid.,
%
clouds,
%
prec.,
mm/h
press.,
hPa
HPBL,
m
27 february, sat
sat2723:00−16se7129393 0.1 1018326
02:00−15sse81493100 0.1 1014401
05:00−12sse101793100 1.1 1010527
08:00−11sse91793100 4.9 1005578
11:00−8sse81294100 5.9 1003450
14:00−4s6996100 0.8 1002320
17:00−1ssw3699100 1.4 1002246
20:000sw599899 0.3 1001472
28 february, sun
sun2823:000sw4898100 0.9 1000385
02:00−1sw599895 0.4 998496
05:00−1sw489898 1.0 998401
08:00−2sw4897100 0.7 998345
11:00−1wsw5797100 1.8 999427
14:00−5wnw569693 0.3 1001271
17:00−7wnw589495 0.4 1004393
20:00−10wnw599597 0.1 1007279
1 march, mon
mon123:00−13wnw479796 0.2 1010145
02:00−13w359699 0.3 1012177
05:00−14w359699 0.6 1014120
08:00−15wnw359798 0.3 101699
11:00−13wnw359497 0.4 1017269
14:00−12wnw459399 0.1 1018379
17:00−12nw469399 0.3 1020398
20:00−18nw3498100 0.1 102163
2 march, tue
tue223:00−21wnw2310075 0.1 102220
02:00−22w2310064 0.0 102320
05:00−23w2310069 0.0 102220
08:00−24sw239954 0.0 102120
11:00−20ssw469631 0.0 1020188
14:00−16ssw6109576 0.0 1018316
17:00−14ssw7129488 0.1 1015389
20:00−13ssw71494100 0.3 1013468
3 march, wed
wed323:00−8s81492100 0.7 1010517
02:00−5ssw71595100 0.7 1006676
05:00−3ssw71295100 1.5 1003592
08:00−4ssw51096100 0.6 1002429
11:00−4wsw579597 0.9 1002334
14:00−3wsw469399 0.1 1002478
17:00−3wsw589498 0.3 1002557
20:00−5wsw51096100 0.5 1003411